Time,TemperatureF,DewpointF,PressureIn,WindDirection,WindDirectionDegrees,WindSpeedMPH,WindSpeedGustMPH,Humidity,HourlyPrecipIn,Conditions,Clouds,dailyrainin,SoftwareType,DateUTC
2013-01-28 00:02:00,39.0,38.0,29.90,SSW,200,6.0,11.0,98,0.01,,,0.08,,2013-01-28 06:02:00,
2013-01-28 00:11:00,39.0,38.0,29.90,SSW,200,6.0,11.0,98,0.01,,,0.08,,2013-01-28 06:11:00,
2013-01-28 00:22:00,40.0,39.0,29.89,SSW,200,8.0,15.0,98,0.01,,,0.08,,2013-01-28 06:22:00,
2013-01-28 00:32:00,40.0,39.0,29.88,SSW,207,7.0,13.0,98,0.00,,,0.08,,2013-01-28 06:32:00,
2013-01-28 00:42:00,40.0,39.0,29.88,SSW,207,7.0,13.0,98,0.00,,,0.08,,2013-01-28 06:42:00,
2013-01-28 00:52:00,41.0,40.0,29.88,SSW,198,6.0,14.0,98,0.00,,,0.08,,2013-01-28 06:52:00,
2013-01-28 01:02:00,41.0,40.0,29.88,SSW,198,6.0,12.0,98,0.00,,,0.08,,2013-01-28 07:02:00,
2013-01-28 01:11:00,41.0,40.0,29.88,SSW,198,6.0,12.0,98,0.00,,,0.08,,2013-01-28 07:11:00,
2013-01-28 01:21:00,41.0,40.0,29.87,SSE,164,6.0,13.0,98,0.00,,,0.08,,2013-01-28 07:21:00,
2013-01-28 01:32:00,42.0,41.0,29.87,SSW,197,6.0,15.0,98,0.00,,,0.08,,2013-01-28 07:32:00,
2013-01-28 01:42:00,42.0,41.0,29.87,SSW,197,6.0,15.0,98,0.00,,,0.08,,2013-01-28 07:42:00,
2013-01-28 01:52:00,42.0,41.0,29.88,SSW,198,6.0,12.0,98,0.00,,,0.08,,2013-01-28 07:52:00,
2013-01-28 02:01:00,42.0,41.0,29.87,South,176,5.0,12.0,98,0.00,,,0.08,,2013-01-28 08:01:00,
2013-01-28 02:11:00,42.0,41.0,29.87,South,176,5.0,12.0,98,0.00,,,0.08,,2013-01-28 08:11:00,
2013-01-28 02:21:00,42.0,41.0,29.87,SW,216,7.0,13.0,98,0.00,,,0.08,,2013-01-28 08:21:00,
2013-01-28 02:32:00,43.0,42.0,29.87,SSE,168,9.0,16.0,98,0.00,,,0.08,,2013-01-28 08:32:00,
2013-01-28 02:42:00,43.0,42.0,29.87,SSE,168,9.0,16.0,98,0.00,,,0.08,,2013-01-28 08:42:00,
2013-01-28 02:52:00,43.0,42.0,29.86,SSE,166,8.0,14.0,98,0.00,,,0.08,,2013-01-28 08:52:00,
2013-01-28 03:02:00,43.0,42.0,29.86,SW,236,6.0,12.0,98,0.00,,,0.08,,2013-01-28 09:02:00,
2013-01-28 03:11:00,43.0,42.0,29.86,SW,236,6.0,12.0,98,0.00,,,0.08,,2013-01-28 09:11:00,
2013-01-28 03:21:00,44.0,43.0,29.85,SSW,192,7.0,15.0,98,0.00,,,0.08,,2013-01-28 09:21:00,
2013-01-28 03:32:00,44.0,43.0,29.85,SSW,209,7.0,13.0,98,0.00,,,0.08,,2013-01-28 09:32:00,
2013-01-28 03:42:00,44.0,43.0,29.85,SSW,209,7.0,13.0,98,0.00,,,0.08,,2013-01-28 09:42:00,
2013-01-28 03:52:00,44.0,43.0,29.84,SSW,201,7.0,17.0,98,0.00,,,0.08,,2013-01-28 09:52:00,
2013-01-28 04:02:00,45.0,44.0,29.84,South,191,7.0,14.0,98,0.00,,,0.08,,2013-01-28 10:02:00,
2013-01-28 04:11:00,45.0,44.0,29.84,South,191,7.0,14.0,98,0.00,,,0.08,,2013-01-28 10:11:00,
2013-01-28 04:21:00,45.0,44.0,29.84,SSW,206,6.0,15.0,98,0.00,,,0.08,,2013-01-28 10:21:00,
2013-01-28 04:32:00,45.0,44.0,29.84,South,182,5.0,15.0,98,0.00,,,0.08,,2013-01-28 10:32:00,
2013-01-28 04:41:00,45.0,44.0,29.84,South,182,5.0,15.0,98,0.00,,,0.08,,2013-01-28 10:41:00,
2013-01-28 04:52:00,46.0,45.0,29.84,SSW,202,6.0,13.0,98,0.00,,,0.08,,2013-01-28 10:52:00,
2013-01-28 05:02:00,46.0,45.0,29.84,SSW,202,6.0,13.0,98,0.00,,,0.08,,2013-01-28 11:02:00,
2013-01-28 05:11:00,46.0,45.0,29.84,SSW,202,6.0,13.0,98,0.00,,,0.08,,2013-01-28 11:11:00,
2013-01-28 05:22:00,46.0,45.0,29.83,South,171,7.0,13.0,98,0.00,,,0.08,,2013-01-28 11:22:00,
2013-01-28 05:32:00,46.0,45.0,29.84,SSW,209,5.0,11.0,98,0.00,,,0.08,,2013-01-28 11:32:00,
2013-01-28 05:42:00,46.0,45.0,29.84,SSW,209,5.0,11.0,98,0.00,,,0.08,,2013-01-28 11:42:00,
2013-01-28 05:52:00,47.0,46.0,29.83,SSW,196,6.0,14.0,98,0.00,,,0.08,,2013-01-28 11:52:00,
2013-01-28 06:03:00,47.0,46.0,29.83,SW,234,6.0,13.0,98,0.00,,,0.08,,2013-01-28 12:03:00,
2013-01-28 06:12:00,47.0,46.0,29.83,SW,234,6.0,13.0,98,0.00,,,0.08,,2013-01-28 12:12:00,
2013-01-28 06:23:00,47.0,46.0,29.84,SSW,195,4.0,11.0,98,0.00,,,0.08,,2013-01-28 12:23:00,
2013-01-28 06:33:00,47.0,46.0,29.84,SSE,155,4.0,8.0,97,0.00,,,0.08,,2013-01-28 12:33:00,
2013-01-28 06:42:00,47.0,46.0,29.84,SSE,155,4.0,8.0,97,0.00,,,0.08,,2013-01-28 12:42:00,
2013-01-28 06:52:00,47.0,46.0,29.85,South,189,3.0,7.0,97,0.00,,,0.08,,2013-01-28 12:52:00,
2013-01-28 07:02:00,47.0,46.0,29.85,SW,216,1.0,9.0,97,0.00,,,0.08,,2013-01-28 13:02:00,
2013-01-28 07:12:00,47.0,46.0,29.85,SW,216,1.0,9.0,97,0.00,,,0.08,,2013-01-28 13:12:00,
2013-01-28 07:23:00,47.0,46.0,29.86,SSW,198,3.0,6.0,97,0.00,,,0.08,,2013-01-28 13:23:00,
2013-01-28 07:33:00,47.0,46.0,29.86,SSW,210,2.0,11.0,98,0.00,,,0.08,,2013-01-28 13:33:00,
2013-01-28 07:42:00,47.0,46.0,29.86,SSW,210,2.0,11.0,98,0.00,,,0.08,,2013-01-28 13:42:00,
2013-01-28 07:53:00,47.0,46.0,29.87,SSW,197,2.0,5.0,98,0.00,,,0.08,,2013-01-28 13:53:00,
2013-01-28 08:03:00,48.0,47.0,29.88,SW,225,1.0,5.0,98,0.00,,,0.08,,2013-01-28 14:03:00,
2013-01-28 08:12:00,48.0,47.0,29.88,SW,225,1.0,5.0,98,0.00,,,0.08,,2013-01-28 14:12:00,
2013-01-28 08:22:00,48.0,47.0,29.88,SSW,204,1.0,6.0,98,0.00,,,0.08,,2013-01-28 14:22:00,
2013-01-28 08:33:00,47.0,46.0,29.89,SSW,200,1.0,6.0,98,0.00,,,0.08,,2013-01-28 14:33:00,
2013-01-28 08:43:00,47.0,46.0,29.89,SSW,200,1.0,6.0,98,0.00,,,0.08,,2013-01-28 14:43:00,
2013-01-28 08:53:00,47.0,46.0,29.89,South,188,0.0,4.0,98,0.00,,,0.08,,2013-01-28 14:53:00,
2013-01-28 09:03:00,47.0,46.0,29.90,NW,323,0.0,4.0,98,0.00,,,0.08,,2013-01-28 15:03:00,
2013-01-28 09:12:00,47.0,46.0,29.90,NW,323,0.0,4.0,98,0.00,,,0.08,,2013-01-28 15:12:00,
2013-01-28 09:23:00,47.0,46.0,29.90,WNW,294,0.0,2.0,98,0.00,,,0.08,,2013-01-28 15:23:00,
2013-01-28 09:33:00,47.0,46.0,29.90,NNW,338,1.0,3.0,98,0.00,,,0.08,,2013-01-28 15:33:00,
2013-01-28 09:43:00,47.0,46.0,29.90,NNW,338,1.0,3.0,98,0.00,,,0.08,,2013-01-28 15:43:00,
2013-01-28 09:53:00,48.0,47.0,29.91,NW,326,1.0,4.0,98,0.00,,,0.08,,2013-01-28 15:53:00,
2013-01-28 10:04:00,48.0,47.0,29.91,WNW,293,0.0,2.0,98,0.00,,,0.08,,2013-01-28 16:04:00,
2013-01-28 10:12:00,48.0,47.0,29.91,WNW,293,0.0,2.0,98,0.00,,,0.08,,2013-01-28 16:12:00,
2013-01-28 10:22:00,48.0,47.0,29.93,NW,308,1.0,4.0,98,0.01,,,0.09,,2013-01-28 16:22:00,
2013-01-28 10:32:00,48.0,47.0,29.93,WSW,249,0.0,2.0,98,0.01,,,0.09,,2013-01-28 16:32:00,
2013-01-28 10:43:00,48.0,47.0,29.93,WSW,249,0.0,2.0,98,0.01,,,0.09,,2013-01-28 16:43:00,
2013-01-28 10:53:00,48.0,47.0,29.93,WSW,241,0.0,2.0,98,0.01,,,0.09,,2013-01-28 16:53:00,
2013-01-28 11:02:00,48.0,47.0,29.93,NW,318,1.0,4.0,98,0.01,,,0.09,,2013-01-28 17:02:00,
2013-01-28 11:12:00,48.0,47.0,29.93,NW,318,1.0,4.0,98,0.01,,,0.09,,2013-01-28 17:12:00,
2013-01-28 11:23:00,48.0,47.0,29.93,NNW,340,0.0,2.0,98,0.00,,,0.09,,2013-01-28 17:23:00,
2013-01-28 11:32:00,48.0,47.0,29.93,NNW,329,2.0,4.0,98,0.00,,,0.09,,2013-01-28 17:32:00,
2013-01-28 11:42:00,48.0,47.0,29.93,NNW,329,2.0,4.0,98,0.00,,,0.09,,2013-01-28 17:42:00,
2013-01-28 11:53:00,48.0,47.0,29.93,NW,304,2.0,5.0,98,0.00,,,0.09,,2013-01-28 17:53:00,
2013-01-28 12:03:00,48.0,47.0,29.92,NNW,348,0.0,4.0,98,0.00,,,0.09,,2013-01-28 18:03:00,
2013-01-28 12:12:00,48.0,47.0,29.92,NNW,348,0.0,4.0,98,0.00,,,0.09,,2013-01-28 18:12:00,
2013-01-28 12:23:00,48.0,47.0,29.92,North,351,1.0,6.0,98,0.00,,,0.09,,2013-01-28 18:23:00,
2013-01-28 12:33:00,47.0,46.0,29.92,WNW,285,1.0,3.0,97,0.00,,,0.09,,2013-01-28 18:33:00,
2013-01-28 12:42:00,47.0,46.0,29.92,WNW,285,1.0,3.0,97,0.00,,,0.09,,2013-01-28 18:42:00,
2013-01-28 12:52:00,47.0,46.0,29.91,North,5,0.0,4.0,97,0.00,,,0.09,,2013-01-28 18:52:00,
2013-01-28 13:02:00,46.0,45.0,29.91,NNW,344,0.0,2.0,97,0.00,,,0.09,,2013-01-28 19:02:00,
2013-01-28 13:12:00,46.0,45.0,29.91,NNW,344,0.0,2.0,97,0.00,,,0.09,,2013-01-28 19:12:00,
2013-01-28 13:22:00,46.0,45.0,29.90,North,355,0.0,3.0,97,0.00,,,0.09,,2013-01-28 19:22:00,
2013-01-28 13:32:00,46.0,45.0,29.90,NNE,21,0.0,2.0,97,0.00,,,0.09,,2013-01-28 19:32:00,
2013-01-28 13:42:00,46.0,45.0,29.90,NNE,21,0.0,2.0,97,0.00,,,0.09,,2013-01-28 19:42:00,
2013-01-28 13:52:00,45.0,44.0,29.91,North,355,0.0,2.0,97,0.00,,,0.09,,2013-01-28 19:52:00,
2013-01-28 14:02:00,45.0,44.0,29.91,NNW,348,0.0,2.0,97,0.00,,,0.09,,2013-01-28 20:02:00,
2013-01-28 14:12:00,45.0,44.0,29.91,NNW,348,0.0,2.0,97,0.00,,,0.09,,2013-01-28 20:12:00,
2013-01-28 14:22:00,45.0,44.0,29.91,North,5,0.0,2.0,97,0.00,,,0.09,,2013-01-28 20:22:00,
2013-01-28 14:33:00,45.0,44.0,29.91,NNE,16,0.0,3.0,97,0.00,,,0.09,,2013-01-28 20:33:00,
2013-01-28 14:42:00,45.0,44.0,29.91,NNE,16,0.0,3.0,97,0.00,,,0.09,,2013-01-28 20:42:00,
2013-01-28 14:53:00,45.0,44.0,29.91,NNE,15,0.0,2.0,97,0.00,,,0.09,,2013-01-28 20:53:00,
2013-01-28 15:03:00,45.0,44.0,29.91,NNE,30,0.0,1.0,97,0.00,,,0.09,,2013-01-28 21:03:00,
2013-01-28 15:12:00,45.0,44.0,29.91,NNE,30,0.0,1.0,97,0.00,,,0.09,,2013-01-28 21:12:00,
2013-01-28 15:22:00,45.0,44.0,29.91,NNE,30,0.0,0.0,97,0.00,,,0.09,,2013-01-28 21:22:00,
2013-01-28 15:33:00,45.0,44.0,29.91,NNE,32,0.0,0.0,97,0.00,,,0.09,,2013-01-28 21:33:00,
2013-01-28 15:43:00,45.0,44.0,29.91,NNE,32,0.0,0.0,97,0.00,,,0.09,,2013-01-28 21:43:00,
2013-01-28 15:53:00,45.0,44.0,29.91,NNE,30,0.0,0.0,97,0.00,,,0.09,,2013-01-28 21:53:00,
2013-01-28 16:02:00,45.0,44.0,29.91,NNE,30,0.0,0.0,97,0.00,,,0.09,,2013-01-28 22:02:00,
2013-01-28 16:11:00,45.0,44.0,29.91,NNE,30,0.0,0.0,97,0.00,,,0.09,,2013-01-28 22:11:00,
2013-01-28 16:23:00,45.0,44.0,29.91,NNE,30,0.0,0.0,97,0.00,,,0.09,,2013-01-28 22:23:00,
2013-01-28 16:32:00,45.0,44.0,29.90,NNE,30,0.0,0.0,97,0.00,,,0.09,,2013-01-28 22:32:00,
2013-01-28 16:42:00,45.0,44.0,29.90,NNE,30,0.0,0.0,97,0.00,,,0.09,,2013-01-28 22:42:00,
2013-01-28 16:52:00,45.0,44.0,29.90,NNE,30,0.0,0.0,96,0.00,,,0.09,,2013-01-28 22:52:00,
2013-01-28 17:02:00,44.0,43.0,29.91,NNE,30,0.0,0.0,96,0.00,,,0.09,,2013-01-28 23:02:00,
2013-01-28 17:12:00,44.0,43.0,29.91,NNE,30,0.0,0.0,96,0.00,,,0.09,,2013-01-28 23:12:00,
2013-01-28 17:22:00,44.0,43.0,29.90,NNE,30,0.0,0.0,97,0.00,,,0.09,,2013-01-28 23:22:00,
2013-01-28 17:32:00,44.0,43.0,29.90,NNE,30,0.0,1.0,97,0.00,,,0.09,,2013-01-28 23:32:00,
2013-01-28 17:42:00,44.0,43.0,29.90,NNE,30,0.0,1.0,97,0.00,,,0.09,,2013-01-28 23:42:00,
2013-01-28 17:53:00,44.0,43.0,29.91,NNE,30,0.0,1.0,97,0.00,,,0.09,,2013-01-28 23:53:00,
2013-01-28 18:02:00,44.0,43.0,29.91,NNE,30,0.0,0.0,97,0.00,,,0.09,,2013-01-29 00:02:00,
2013-01-28 18:12:00,44.0,43.0,29.91,NNE,30,0.0,0.0,97,0.00,,,0.09,,2013-01-29 00:12:00,
2013-01-28 18:22:00,43.0,42.0,29.90,NNE,32,0.0,0.0,97,0.00,,,0.09,,2013-01-29 00:22:00,
2013-01-28 18:32:00,43.0,42.0,29.90,NNE,30,0.0,1.0,97,0.00,,,0.09,,2013-01-29 00:32:00,
2013-01-28 18:42:00,43.0,42.0,29.90,NNE,30,0.0,1.0,97,0.00,,,0.09,,2013-01-29 00:42:00,
2013-01-28 18:52:00,43.0,42.0,29.91,SE,130,0.0,1.0,97,0.00,,,0.09,,2013-01-29 00:52:00,
2013-01-28 19:02:00,43.0,42.0,29.89,SSE,147,0.0,1.0,97,0.00,,,0.09,,2013-01-29 01:02:00,
2013-01-28 19:12:00,43.0,42.0,29.89,SSE,147,0.0,1.0,97,0.00,,,0.09,,2013-01-29 01:12:00,
2013-01-28 19:23:00,43.0,42.0,29.90,SSE,147,0.0,0.0,97,0.00,,,0.09,,2013-01-29 01:23:00,
2013-01-28 19:32:00,43.0,42.0,29.89,SSE,147,0.0,1.0,98,0.00,,,0.09,,2013-01-29 01:32:00,
2013-01-28 19:42:00,43.0,42.0,29.89,SSE,147,0.0,1.0,98,0.00,,,0.09,,2013-01-29 01:42:00,
2013-01-28 19:52:00,43.0,42.0,29.89,SSE,147,0.0,0.0,98,0.00,,,0.09,,2013-01-29 01:52:00,
2013-01-28 20:02:00,43.0,42.0,29.89,SE,145,0.0,1.0,98,0.00,,,0.09,,2013-01-29 02:02:00,
2013-01-28 20:12:00,43.0,42.0,29.89,SE,145,0.0,1.0,98,0.00,,,0.09,,2013-01-29 02:12:00,
2013-01-28 20:22:00,43.0,42.0,29.88,SE,130,0.0,1.0,98,0.00,,,0.09,,2013-01-29 02:22:00,
2013-01-28 20:32:00,43.0,42.0,29.88,East,101,0.0,1.0,98,0.00,,,0.09,,2013-01-29 02:32:00,
2013-01-28 20:42:00,43.0,42.0,29.88,East,101,0.0,1.0,98,0.00,,,0.09,,2013-01-29 02:42:00,
2013-01-28 20:53:00,43.0,42.0,29.87,ESE,103,0.0,0.0,98,0.00,,,0.09,,2013-01-29 02:53:00,
2013-01-28 21:03:00,44.0,43.0,29.87,East,98,0.0,2.0,98,0.00,,,0.08,,2013-01-29 03:03:00,
2013-01-28 21:11:00,44.0,43.0,29.87,East,98,0.0,2.0,98,0.00,,,0.08,,2013-01-29 03:11:00,
2013-01-28 21:22:00,45.0,44.0,29.85,SE,141,0.0,1.0,98,0.00,,,0.08,,2013-01-29 03:22:00,
2013-01-28 21:32:00,44.0,43.0,29.85,SE,141,0.0,0.0,98,0.00,,,0.08,,2013-01-29 03:32:00,
2013-01-28 21:42:00,44.0,43.0,29.85,SE,141,0.0,0.0,98,0.00,,,0.08,,2013-01-29 03:42:00,
2013-01-28 21:53:00,45.0,44.0,29.83,NE,46,0.0,2.0,98,0.03,,,0.11,,2013-01-29 03:53:00,
2013-01-28 22:02:00,49.0,49.0,29.82,South,175,4.0,7.0,99,0.05,,,0.09,,2013-01-29 04:02:00,
2013-01-28 22:11:00,49.0,49.0,29.82,South,175,4.0,7.0,99,0.05,,,0.09,,2013-01-29 04:11:00,
2013-01-28 22:22:00,49.0,49.0,29.80,South,183,2.0,7.0,99,0.06,,,0.10,,2013-01-29 04:22:00,
2013-01-28 22:32:00,48.0,48.0,29.80,South,181,1.0,5.0,99,0.06,,,0.10,,2013-01-29 04:32:00,
2013-01-28 22:42:00,48.0,48.0,29.80,South,181,1.0,5.0,99,0.06,,,0.10,,2013-01-29 04:42:00,
2013-01-28 22:52:00,48.0,48.0,29.80,South,190,3.0,5.0,99,0.03,,,0.10,,2013-01-29 04:52:00,
2013-01-28 23:03:00,48.0,48.0,29.78,SSE,155,3.0,6.0,99,0.01,,,0.09,,2013-01-29 05:03:00,
2013-01-28 23:12:00,48.0,48.0,29.78,SSE,155,3.0,6.0,99,0.01,,,0.09,,2013-01-29 05:12:00,
2013-01-28 23:21:00,50.0,50.0,29.78,South,174,5.0,9.0,99,0.00,,,0.09,,2013-01-29 05:21:00,
2013-01-28 23:32:00,52.0,52.0,29.77,SE,145,7.0,13.0,99,0.00,,,0.09,,2013-01-29 05:32:00,
2013-01-28 23:42:00,52.0,52.0,29.77,SE,145,7.0,13.0,99,0.00,,,0.09,,2013-01-29 05:42:00,
2013-01-28 23:52:00,53.0,53.0,29.76,SSW,202,9.0,14.0,99,0.00,,,0.09,,2013-01-29 05:52:00,